Location: Knowlton
(51.2333°N, 1.2667°E)
Time: 09:33:34
(UTC+00:00)

Cosmos 2263 Rocket - Pass Details

Date: 18 April 2021
Orbit: 824 x 848 km, 71.0° (Epoch: 05 May)

Event Time Altitude Azimuth Distance (km) Brightness Sun altitude
Exits shadow 21:42:49 15° 80° (E) 2,125 4.0 -21.4°
Drops below altitude 10° 21:44:35 10° 62° (ENE) 2,434 4.5 -21.6°
Sets 21:47:56 0° 42° (NE) 3,375 5.5 -21.9°
